Location: Nassau
(25.0830°N, 77.3500°W)
Time: 14:48:36
(UTC-05:00)

ISS - All Passes

Search period start: 21 January 2017 00:00
Search period end: 31 January 2017 00:00
Orbit: 399 x 410 km, 51.6° (Epoch: 22 January)

Date Brightness Start Highest point End Pass type
(mag) Time Alt. Az. Time Alt. Az. Time Alt. Az.
21 Jan - 05:50:53 10° NW 05:54:07 79° NE 05:57:21 10° SE visible
21 Jan - 20:48:09 10° SW 20:51:21 54° NW 20:54:32 10° NNE night (unlit)
22 Jan - 04:58:59 10° NNW 05:01:54 31° NE 05:04:50 10° ESE visible
22 Jan - 06:36:53 10° WSW 06:38:06 12° SW 06:39:20 10° SSW daylight
22 Jan - 19:55:59 10° SSW 19:59:11 55° SE 20:02:22 10° NE visible
23 Jan - 04:07:37 10° N 04:09:35 15° NE 04:11:33 10° E visible
23 Jan - 05:43:15 10° WNW 05:46:03 27° SW 05:48:51 10° S visible
23 Jan - 19:04:28 10° S 19:07:04 22° SE 19:09:39 10° ENE visible
23 Jan - 20:41:08 10° W 20:43:27 18° NW 20:45:46 10° N visible
24 Jan - 04:50:41 10° NW 04:53:55 72° SW 04:57:08 10° SE visible
24 Jan - 19:48:03 10° WSW 19:51:08 38° NW 19:54:13 10° NNE visible
25 Jan - 03:58:36 10° NNW 04:01:42 42° NE 04:04:46 10° ESE night (unlit)
25 Jan - 18:55:38 10° SW 18:58:53 80° SE 19:02:09 10° NE visible
26 Jan - 03:06:57 10° N 03:09:22 19° NE 03:11:46 10° E night (unlit)
26 Jan - 04:43:16 10° WNW 04:45:43 20° SW 04:48:10 10° S visible
26 Jan - 18:03:49 10° S 18:06:43 30° SE 18:09:37 10° ENE daylight
26 Jan - 19:41:21 10° WNW 19:43:12 14° NW 19:45:03 10° N visible
27 Jan - 03:50:26 10° NW 03:53:35 50° SW 03:56:43 10° SSE night (unlit)
27 Jan - 17:13:02 10° SSE 17:14:36 13° SE 17:16:09 10° E daylight
27 Jan - 18:47:55 10° WSW 18:50:49 29° NW 18:53:42 10° NNE visible
28 Jan - 02:58:09 10° NNW 03:01:20 59° NE 03:04:31 10° SE night (unlit)
28 Jan - 17:55:15 10° SW 17:58:30 72° NW 18:01:46 10° NE daylight
29 Jan - 02:06:17 10° NNW 02:09:02 24° NE 02:11:44 10° ESE night (unlit)
29 Jan - 03:43:21 10° W 03:45:17 15° SW 03:47:13 10° SSW night (unlit)
29 Jan - 17:03:09 10° SSW 17:06:16 41° SE 17:09:22 10° ENE daylight
29 Jan - 18:41:46 10° WNW 18:42:51 11° NW 18:43:56 10° NNW visible
30 Jan - 01:15:10 10° NNE 01:16:35 12° NE 01:17:59 10° ENE night (unlit)
30 Jan - 02:50:07 10° WNW 02:53:07 35° SW 02:56:06 10° SSE night (unlit)
30 Jan - 16:11:50 10° S 16:14:05 17° SE 16:16:19 10° E daylight
30 Jan - 17:47:45 10° W 17:50:23 22° NW 17:53:02 10° N daylight
